Rockingham, NC

12:07 PM EST on February 23, 2017 (GMT -0500)
Rockingham

Weather History for KRCZ - December, 2013

Change the Weather History Date:

Sunday, December 15, 2013

  Actual Average (KHFF) Record (KHFF)
Temperature  
Mean Temperature 47 °F -  
Max Temperature 56 °F 54 °F 73 °F (2015)
Min Temperature 37 °F 34 °F 11 °F (2010)
Degree Days  
Heating Degree Days 18    
Moisture  
Dew Point 40 °F    
Average Humidity 79    
Maximum Humidity 100    
Minimum Humidity 49    
Precipitation  
Precipitation 0.07 in - - ()
Sea Level Pressure  
Sea Level Pressure 29.90 in    
Wind  
Wind Speed 5 mph (WNW)    
Max Wind Speed 10 mph    
Max Gust Speed 17 mph    
Visibility 6 miles    
Events Fog , Rain    
Averages and records for this station are not official NWS values.
T = Trace of Precipitation, MM = Missing Value Source: NWS Daily Summary

Daily Weather History Graph

Daily Weather History Graph

Search for Another Location

Airport or City:

Trip Planner

Search our weather history database for the weather conditions in past years. The results will help you decide how hot, cold, wet, or windy it might be!

Date:

Astronomy

Dec. 15, 2013 Rise Set
Actual Time 7:19 AM EST 5:09 PM EST
Civil Twilight 6:51 AM EST 5:37 PM EST
Nautical Twilight 6:19 AM EST 6:08 PM EST
Astronomical Twilight 5:48 AM EST 6:39 PM EST
Moon 4:09 PM EST (12/15) 5:37 AM EST (12/15)
Length of Visible Light 10h 45m
Length of Day
9h 49m
Waxing Gibbous, 97% of the Moon is Illuminated
Dec 15
Waxing Gibbous
Dec 17
Full
Dec 25
Last Quarter
Jan 1
New
Jan 7
First Quarter

Hourly Weather History & Observations

Time (EST) Temp. Windchill Dew Point Humidity Pressure Visibility Wind Dir Wind Speed Gust Speed Precip Events Conditions
12:15 AM 46.0 °F - 46.0 °F 100% 29.79 in 5.0 mi Calm Calm - N/A   Overcast
12:35 AM 45.9 °F - 45.9 °F 100% 29.78 in 1.5 mi Calm Calm - N/A   Overcast
12:55 AM 45.9 °F - 45.9 °F 100% 29.78 in 0.5 mi Calm Calm - 0.01 in Fog Fog
1:15 AM 45.9 °F 43.6 °F 45.9 °F 100% 29.77 in 0.5 mi NW 4.6 mph - N/A Fog Fog
1:35 AM 45.5 °F 44.2 °F 45.5 °F 100% 29.77 in 0.5 mi NNW 3.5 mph - N/A Fog Fog
1:55 AM 45.0 °F 41.2 °F 45.0 °F 100% 29.79 in 1.2 mi West 6.9 mph - N/A   Overcast
2:15 AM 44.6 °F 40.7 °F 44.6 °F 100% 29.80 in 1.5 mi West 6.9 mph - N/A   Overcast
2:35 AM 44.2 °F 41.0 °F 44.2 °F 100% 29.78 in 1.0 mi SW 5.8 mph - N/A Rain Light Rain
2:55 AM 44.1 °F 40.8 °F 44.1 °F 100% 29.79 in 0.8 mi WSW 5.8 mph - N/A   Light Drizzle
3:15 AM 44.1 °F 41.5 °F 44.1 °F 100% 29.79 in 0.5 mi WSW 4.6 mph - N/A Rain Light Rain
3:35 AM 44.2 °F - 44.2 °F 100% 29.78 in 1.0 mi Calm Calm - 0.01 in Rain Light Rain
3:55 AM 44.2 °F - 44.2 °F 100% 29.76 in 1.2 mi Calm Calm - 0.01 in Rain Light Rain
4:15 AM 44.6 °F 42.2 °F 44.6 °F 100% 29.76 in 1.0 mi WNW 4.6 mph - N/A Rain Light Rain
4:35 AM 44.2 °F 42.7 °F 44.2 °F 100% 29.77 in 1.5 mi WSW 3.5 mph - N/A Rain Light Rain
4:55 AM 44.6 °F - 44.6 °F 100% 29.74 in 2.0 mi Calm Calm - N/A   Overcast
5:15 AM 44.6 °F 42.2 °F 44.6 °F 100% 29.74 in 2.5 mi South 4.6 mph - N/A   Mostly Cloudy
5:35 AM 44.6 °F 42.2 °F 44.6 °F 100% 29.77 in 2.0 mi SW 4.6 mph - N/A   Mostly Cloudy
5:55 AM 44.6 °F 43.1 °F 44.6 °F 100% 29.75 in 2.0 mi West 3.5 mph - N/A   Mostly Cloudy
6:15 AM 44.6 °F 41.4 °F 44.6 °F 100% 29.77 in 2.0 mi NW 5.8 mph - 0.01 in   Overcast
6:35 AM 44.4 °F 41.2 °F 44.4 °F 100% 29.79 in 2.0 mi WNW 5.8 mph - 0.01 in   Overcast
6:55 AM 44.2 °F 41.0 °F 44.2 °F 100% 29.80 in 2.0 mi NW 5.8 mph - 0.01 in   Overcast
7:15 AM 43.7 °F 41.1 °F 43.7 °F 100% 29.81 in 0.8 mi West 4.6 mph - N/A   Overcast
7:35 AM 44.2 °F 41.8 °F 44.2 °F 100% 29.83 in 1.0 mi West 4.6 mph - N/A   Overcast
7:55 AM 44.6 °F 40.7 °F 44.6 °F 100% 29.84 in 0.8 mi West 6.9 mph - N/A   Overcast
8:15 AM 45.0 °F 40.6 °F 45.0 °F 100% 29.85 in 1.0 mi West 8.1 mph - N/A   Overcast
8:35 AM 45.5 °F 41.3 °F 45.5 °F 100% 29.85 in 1.8 mi West 8.1 mph - N/A   Overcast
8:55 AM 45.9 °F 42.9 °F 45.9 °F 100% 29.87 in 2.5 mi WSW 5.8 mph - N/A   Overcast
9:15 AM 46.4 °F 42.9 °F 46.4 °F 100% 29.88 in 3.0 mi West 6.9 mph - N/A   Overcast
9:35 AM 46.6 °F - 46.6 °F 100% 29.90 in 4.0 mi West 6.9 mph - 0.01 in   Overcast
9:55 AM 46.9 °F - 46.9 °F 100% 29.91 in 5.0 mi West 5.8 mph - 0.01 in   Overcast
10:15 AM 47.5 °F - 46.6 °F 97% 29.91 in 7.0 mi West 8.1 mph - N/A   Overcast
10:35 AM 48.0 °F - 46.2 °F 93% 29.91 in 10.0 mi WNW 5.8 mph - N/A   Overcast
10:55 AM 48.6 °F - 45.7 °F 90% 29.91 in 10.0 mi NW 8.1 mph - N/A   Overcast
11:15 AM 49.8 °F - 44.4 °F 82% 29.90 in 10.0 mi NW 8.1 mph - N/A   Mostly Cloudy
11:35 AM 51.1 °F - 44.4 °F 78% 29.90 in 10.0 mi NW 9.2 mph - N/A   Mostly Cloudy
11:55 AM 51.8 °F - 43.3 °F 73% 29.89 in 10.0 mi NNW 6.9 mph - N/A   Mostly Cloudy
12:15 PM 51.8 °F - 41.2 °F 67% 29.89 in 10.0 mi WNW 8.1 mph 16.1 mph N/A   Mostly Cloudy
12:35 PM 52.2 °F - 41.5 °F 67% 29.88 in 10.0 mi NW 9.2 mph - 0.01 in   Mostly Cloudy
12:55 PM 52.0 °F - 41.9 °F 69% 29.89 in 10.0 mi NNW 5.8 mph - 0.01 in   Mostly Cloudy
1:15 PM 53.8 °F - 42.8 °F 66% 29.88 in 10.0 mi West 9.2 mph - N/A   Mostly Cloudy
1:35 PM 55.2 °F - 41.9 °F 61% 29.89 in 10.0 mi WNW 10.4 mph - N/A   Mostly Cloudy
1:55 PM 53.6 °F - 41.4 °F 63% 29.88 in 10.0 mi NW 6.9 mph - N/A   Mostly Cloudy
2:15 PM 55.4 °F - 41.2 °F 59% 29.88 in 10.0 mi West 8.1 mph - N/A   Mostly Cloudy
2:35 PM 55.6 °F - 40.1 °F 56% 29.89 in 10.0 mi WNW 10.4 mph - N/A   Mostly Cloudy
2:55 PM 56.1 °F - 39.2 °F 53% 29.90 in 10.0 mi NNW 10.4 mph - N/A   Mostly Cloudy
3:15 PM 55.9 °F - 38.3 °F 52% 29.90 in 10.0 mi NW 6.9 mph - N/A   Scattered Clouds
3:35 PM 55.6 °F - 38.3 °F 52% 29.91 in 10.0 mi NW 8.1 mph - N/A   Scattered Clouds
3:55 PM 55.4 °F - 36.9 °F 50% 29.92 in 10.0 mi NW 10.4 mph - 0.01 in   Scattered Clouds
4:15 PM 54.9 °F - 36.5 °F 50% 29.93 in 10.0 mi NW 10.4 mph - N/A   Scattered Clouds
4:35 PM 53.8 °F - 35.4 °F 50% 29.94 in 10.0 mi NW 8.1 mph 17.3 mph N/A   Scattered Clouds
4:55 PM 52.7 °F - 34.0 °F 49% 29.95 in 10.0 mi WNW 8.1 mph 17.3 mph N/A   Scattered Clouds
5:15 PM 50.9 °F - 34.3 °F 53% 29.96 in 10.0 mi WNW 6.9 mph - N/A   Scattered Clouds
5:35 PM 49.6 °F - 34.2 °F 55% 29.97 in 10.0 mi WNW 8.1 mph - N/A   Scattered Clouds
5:55 PM 49.1 °F - 33.3 °F 54% 29.98 in 10.0 mi NW 8.1 mph - N/A   Scattered Clouds
6:15 PM 48.4 °F - 32.5 °F 54% 29.98 in 10.0 mi NW 9.2 mph - N/A   Mostly Cloudy
6:35 PM 47.8 °F - 32.0 °F 54% 29.99 in 10.0 mi NNW 9.2 mph - N/A   Mostly Cloudy
6:55 PM 46.8 °F - 32.0 °F 57% 30.01 in 10.0 mi NNW 8.1 mph - N/A   Mostly Cloudy
7:15 PM 46.4 °F 43.5 °F 32.0 °F 57% 30.02 in 10.0 mi NNW 5.8 mph - N/A   Scattered Clouds
7:35 PM 45.3 °F 41.6 °F 32.0 °F 60% 30.03 in 10.0 mi NW 6.9 mph - N/A   Scattered Clouds
7:55 PM 44.6 °F 40.7 °F 31.5 °F 60% 30.03 in 10.0 mi NNW 6.9 mph - N/A   Scattered Clouds
8:15 PM 44.1 °F 40.1 °F 31.1 °F 60% 30.04 in 10.0 mi NW 6.9 mph - N/A   Scattered Clouds
8:35 PM 43.5 °F 41.9 °F 31.1 °F 62% 30.05 in 10.0 mi NNW 3.5 mph - N/A   Mostly Cloudy
8:55 PM 42.6 °F 40.9 °F 31.3 °F 64% 30.06 in 10.0 mi NNW 3.5 mph - N/A   Mostly Cloudy
9:15 PM 41.9 °F - 31.5 °F 66% 30.07 in 10.0 mi Calm Calm - N/A   Scattered Clouds
9:35 PM 41.9 °F 40.0 °F 31.3 °F 66% 30.07 in 10.0 mi NW 3.5 mph - N/A   Scattered Clouds
9:55 PM 41.0 °F - 31.5 °F 69% 30.07 in 10.0 mi Calm Calm - N/A   Scattered Clouds
10:15 PM 41.0 °F 39.0 °F 31.5 °F 69% 30.08 in 10.0 mi NNW 3.5 mph - 0.01 in   Scattered Clouds
10:35 PM 39.6 °F 36.3 °F 31.1 °F 72% 30.10 in 10.0 mi NW 4.6 mph - 0.01 in   Scattered Clouds
10:55 PM 39.4 °F 37.2 °F 30.9 °F 72% 30.10 in 10.0 mi NW 3.5 mph - 0.01 in   Scattered Clouds
11:15 PM 38.3 °F - 30.7 °F 74% 30.11 in 10.0 mi Calm Calm - N/A   Scattered Clouds
11:35 PM 38.3 °F 35.9 °F 30.2 °F 73% 30.12 in 10.0 mi WNW 3.5 mph - N/A   Clear
11:55 PM 37.6 °F - 30.6 °F 76% 30.11 in 10.0 mi Calm Calm - N/A   Clear